Location: ??? ???
(33.4974°N, 35.4618°E)
Time: 11:14:22
(UTC+00:00)

ASTRO E2 - Pass Details

Date: 29 October 2020
Orbit: 509 x 515 km, 31.4° (Epoch: 26 November)

Event Time Altitude Azimuth Distance (km) Brightness Sun altitude
Rises 15:57:51 0° 265° (W) 2,601 8.2 -14.9°
Reaches altitude 10° 16:00:05 10° 262° (W) 1,715 6.7 -15.4°
Maximum altitude 16:04:00 65° 181° (S) 558 2.8 -16.2°
Enters shadow 16:05:37 33° 110° (ESE) 871 3.3 -16.6°
